sat.trackr.live / text

‹ back to catalog

STARLINK-33824

NORAD 63766 · 2025-089R

PAYLOAD ACTIVE UNKNOWN

§ Identity

Operator
Country
US
Launch date
2025-04-29
Launch site
AFETR
Launch vehicle
Mass (kg)
RCS (m²)

Purposes: comms

External: N2YO · Heavens-Above · Gunter

§ Orbital elements

Epoch: 2026-09-20T14:37:36.835104Z

Period
94.27 min
Inclination
43.0002°
Eccentricity
0.0001726
Mean motion
15.27595483 rev/d
Perigee alt
481.8 km
Apogee alt
484.2 km
Semi-major
6,861.1 km
B*
4.0262e-4
RAAN
24.8069°
Arg perigee
119.5879°
Mean anomaly
240.5145°
Rev number
7,876

§ Raw data

STARLINK-338241 63766U 25089R   26263.60945411  .00010839  00000+0  40262-3 0  99982 63766  43.0002  24.8069 0001726 119.5879 240.5145 15.27595483 78762

JSON: /api/v1/satellites/63766 · /tle

For live sub-satellite position, see the globe view (requires WebGL).

§ Visibility from observer

Set your observer location to see the next 7 days of passes ≥ 10°. The values pass through the URL so the page stays shareable.

No JS? Fill the form by hand. The geolocation button needs JavaScript.